Weather observations for the past three days for
La Paz International Airport
Metric (Imperial)
Date Time (mst) Wind (kph) Vis. (km) Weather Sky Cond. Temperature (ºC) Relative Humidity Wind Chill (°C) Heat Index (°C) Pressure Precipitation (cm)
Air Dwpt 6 hour altimeter (cm) sea level (mb) 1 hr 3 hr 6 hr
Max. Min.
06 09:40 SE 6 16.09 A Few Clouds FEW025 FEW100 31 25 70% 38 75.92 0.0
06 08:50 S 11 16.09 A Few Clouds FEW025 FEW100 29 25 79% 35 75.92 0.0
06 07:45 SW 13 16.09 A Few Clouds FEW080 FEW200 28 26 89% 34 75.9 1011.3
06 06:42 SE 7 16.09 Partly Cloudy FEW030 SCT080 SCT200 26 25 94% 28 75.95 0.0
06 05:42 N 7 9.66 Light Rain BKN020 26 25 94% 28 75.92 0.0
05 22:40 S 11 12.87 Mostly Cloudy BKN100 28 25 84% 33 76 1012.6
05 21:40 SW 11 12.87 Clear SKC 28 25 84% 33 76 0.0
05 20:40 S 9 12.87 A Few Clouds FEW030 FEW100 28 25 84% 33 75.95 0.0
05 19:42 S 11 12.87 Partly Cloudy FEW030 SCT100 28 25 84% 33 75.87 1011.2
05 18:40 SW 9 16.09 Partly Cloudy FEW030 FEW100 SCT200 28 25 84% 33 75.84 0.0
05 17:40 S 19 16.09 Partly Cloudy FEW030TCU FEW100 SCT200 30 24 70% 35 75.82 0.0
05 16:40 SE 22 16.09 Mostly Cloudy BKN030CB 31 24 66% 37 75.82 1010.4
05 15:40 W 24 16.09 Mostly Cloudy SCT025CB BKN200 31 24 66% 37 75.74 0.0
05 14:40 N 11 16.09 Mostly Cloudy SCT025TCU BKN200 35 25 56% 43 75.74 0.0
05 13:40 W 7 16.09 Mostly Cloudy FEW025 BKN200 36 24 50% 43 75.82 1010.2
05 12:40 SW 9 16.09 Mostly Cloudy FEW025 BKN200 34 25 59% 42 75.84 0.0
05 10:47 N 7 16.09 Mostly Cloudy FEW025TCU FEW100 BKN200 32 26 71% 41 76.05 1013.4
05 09:40 Calm 16.09 Partly Cloudy FEW025TCU FEW100 SCT200 32 26 71% 41 76.07 0.0
05 08:46 S 6 16.09 Mostly Cloudy FEW010 SCT080 BKN200 30 26 79% 37 76.05 0.0
05 07:40 Calm 16.09 Partly Cloudy FEW010 FEW080 SCT200 27 26 94% 31 76.05 1013.6
05 06:44 S 9 16.09 Partly Cloudy FEW030 SCT200 26 25 94% 28 76 0.0
05 03:41 S 6 16.09 A Few Clouds FEW100 FEW200 27 25 89% 31 75.92 0.0
04 22:40 SW 7 12.87 Partly Cloudy SCT040 28 26 89% 34 76 1012.6
04 21:40 S 7 12.87 Clear SKC 28 26 89% 34 76 0.0
04 20:40 SW 6 12.87 A Few Clouds FEW040 28 26 89% 34 76.02 0.0
04 19:40 SW 4 12.87 Partly Cloudy FEW040 SCT200 29 25 79% 35 75.97 1012.5
04 18:40 SE 7 16.09 Mostly Cloudy SCT040 BKN200 29 24 74% 34 75.95 0.0
04 17:40 S 13 16.09 Mostly Cloudy SCT030CB BKN200 29 23 70% 33 75.87 0.0
04 16:40 S 26 16.09 Mostly Cloudy BKN030CB BKN200 32 23 59% 37 75.84 1010.6
04 15:40 N 11 16.09 Mostly Cloudy SCT030TCU BKN200 36 26 56% 46 75.77 0.0
04 14:40 NE 15 16.09 A Few Clouds FEW030 FEW200 36 22 44% 41 75.79 0.0
04 13:40 N 13 16.09 A Few Clouds FEW030 FEW200 36 24 50% 43 75.84 1010.7
04 12:40 N 13 16.09 A Few Clouds FEW030 FEW200 35 25 56% 43 75.92 0.0
04 11:40 N 11 16.09 A Few Clouds FEW030 FEW200 35 25 56% 43 75.95 0.0
04 10:40 Calm 16.09 A Few Clouds FEW030 FEW200 34 24 56% 41 76 1012.7
04 09:40 Calm 16.09 A Few Clouds FEW100 FEW200 34 24 56% 41 75.97 0.0
04 08:40 Calm 16.09 A Few Clouds FEW100 FEW200 32 26 71% 41 75.97 0.0
04 07:40 Calm 16.09 A Few Clouds FEW080 FEW200 29 25 79% 35 75.97 1012.1
04 06:40 E 6 16.09 A Few Clouds FEW200 26 25 94% 28 75.95 0.0
04 06:01 Calm 16.09 Clear SKC 25 24 94% 26 75.92 0.0
03 22:40 Calm 12.87 Mostly Cloudy BKN040 28 24 79% 32 76.05 1013.3
03 21:40 W 4 12.87 Partly Cloudy SCT040 28 24 79% 32 76.05 0.0
03 20:40 Calm 12.87 Partly Cloudy SCT040 29 25 79% 35 76 0.0
03 19:40 S 9 12.87 Partly Cloudy FEW100 SCT200 29 24 74% 34 75.97 1012.5
03 18:40 SW 11 16.09 Partly Cloudy FEW100 SCT200 31 24 66% 37 75.95 0.0
03 17:40 S 11 16.09 Mostly Cloudy SCT100 BKN200 32 24 63% 38 75.95 0.0
03 16:40 SW 22 16.09 Mostly Cloudy SCT040 BKN200 33 24 59% 39 75.84 1010.8
03 15:42 SW 9 16.09 Mostly Cloudy SCT040 BKN200 33 23 56% 38 75.9 0.0
03 14:40 S 13 16.09 Partly Cloudy SCT030CB SCT200 31 23 62% 35 75.97 0.0
03 13:40 SE 19 16.09 Partly Cloudy SCT030CB SCT200 32 25 67% 39 75.92 1012.0
03 12:40 S 11 16.09 Partly Cloudy SCT030CB SCT200 34 24 56% 41 76 0.0
03 11:40 S 9 16.09 A Few Clouds FEW030CB FEW100 33 24 59% 39 76.05 0.0
03 10:40 Calm 16.09 A Few Clouds FEW030 FEW100 34 23 53% 39 76.05 1013.2
Date Time (mst) Wind (kph) Vis. (km) Weather Sky Cond. Air Dwpt Max. Min. Relative Humidity Wind Chill (°C) Heat Index (°C) altimeter (cm) sea level (mb) 1 hr 3 hr 6 hr
6 hour
Temperature (ºC) Pressure Precipitation (cm)